SPACEBEE-45 (47470 NORAD) Tracking and Keplerian Element Data

This shows tracking and keplerian element data for the satellite.

Feedback or suggestion? Click here.




ElementValue
Catalog47470
NameSPACEBEE-45
Epoch Orbit1168
Epoch Day99.92483861
Epoch Year2021
RAAN162.2253
Inclination97.4949
Eccentricity0.0006596
Argument of Perigee0.7121
Mean Anonmoly359.4118
Mean Motion15.11978381
Decay Rate2.713E-05
L11 47470U 21006BK 21099.92483861 .00002713 00000-0 16183-3 0 9998
L22 47470 97.4949 162.2253 0006596 0.7121 359.4118 15.11978381 11685

Live tracking and technical data element details for SPACEBEE-45 (NORAD 47470). SPACEBEE-45 can be tracked NOW for your location showing map with azimuth and elevation plus other details from your city location.

Track the satellite on the map from your city or location and see movement details for azimuth, elevation, latitude, longitude, range, height, and movement on the map or in text.







IsCatalogInMostPopularTable: catalog: 47470, numindb: 14
Update: records affected: 1



GetName: 47470 SPACEBEE-45

Hit Count: updated at: Sat, 10 Apr 2021 18:45:29 GMT